Location: Mahannah Oil Field
(37.4664°N, 96.6003°W)
Time: 16:33:36
(UTC+00:00)

Vanguard 2 Rocket - Pass Details

Date: 25 June 2021
Orbit: 554 x 3325 km, 32.9° (Epoch: 24 July)

Event Time Altitude Azimuth Distance (km) Brightness Sun altitude
Rises 06:02:29 0° 283° (WNW) 7,034 11.7 -28.8°
Reaches altitude 10° 06:08:04 10° 277° (W) 5,716 11.1 -29.0°
Maximum altitude 06:22:07 38° 218° (SW) 2,903 9.0 -29.1°
Enters shadow 06:22:16 38° 217° (SW) 2,890 9.0 -29.1°
